Location: Siloam Springs
(36.1880°N, 94.5400°W)
Time: 16:23:42
(UTC-05:00)

ISS - Visible Passes

Search period start: 05 May 2021 00:00
Search period end: 15 May 2021 00:00
Orbit: 418 x 421 km, 51.6° (Epoch: 05 May)

Date Brightness Start Highest point End Pass type
(mag) Time Alt. Az. Time Alt. Az. Time Alt. Az.
10 May -0.6 05:14:48 10° N 05:16:27 13° NNE 05:18:06 10° NE visible
12 May -1.4 05:15:50 10° NNW 05:18:44 26° NNE 05:21:39 10° E visible
13 May -0.7 04:28:44 10° NNW 04:31:08 18° NNE 04:33:33 10° ENE visible
13 May -2.3 21:10:32 10° S 21:12:54 18° SE 21:13:25 17° ESE visible
13 May -1.0 22:46:19 10° WSW 22:46:48 13° WSW 22:46:48 13° WSW visible
14 May -0.4 03:41:48 10° N 03:43:28 13° NNE 03:45:07 10° NE visible
14 May -3.6 05:17:23 10° NW 05:20:45 78° NE 05:24:07 10° SE visible
14 May -3.5 21:58:39 10° SW 22:01:59 69° NW 22:05:20 10° NE visible
14 May -0.3 23:37:52 10° NW 23:39:19 12° NNW 23:40:46 10° N visible
